Theta_e
347 343 343 342 339 338 337 338 337 336 336 334 333 332 330 329 328 327 326 327 326 326 326 326 325 325 326 327 328 329 329 329 330 329 328 328 328 327 326 328 329 328 328
339 339 339 338 336 333 330 328 327 325 325 324 324 323 322 322 321 321 320 320 320 321 320 321 321 320 320 320 321 322 321 321 325 327 326 325 324 324 324 325 325 326 328
336 334 333 331 329 328 326 324 323 322 321 320 319 318 317 316 316 317 312 311 311 312 314 317 318 317 318 318 316 312 311 314 314 317 319 320 320 321 322 325 325 324 324
332 330 328 327 325 323 321 319 317 316 315 315 314 314 314 313 312 309 308 307 306 309 310 311 312 314 313 311 310 310 311 310 311 311 312 313 313 313 316 316 317 318 321
328 326 324 322 320 319 318 317 316 316 315 314 314 313 313 308 306 306 305 305 305 305 308 312 313 312 311 309 309 308 308 307 308 309 310 311 312 312 313 311 311 312 313
323 322 320 319 318 318 317 316 315 314 313 312 312 311 310 305 305 304 304 304 304 306 309 313 312 310 309 308 307 306 306 306 306 306 306 307 307 308 308 308 307 307 308
320 318 317 316 316 315 314 313 312 311 310 309 309 308 308 305 304 303 303 306 308 309 309 309 308 308 306 305 304 302 303 305 306 306 306 306 307 307 306 306 305 305 304
316 315 314 313 311 310 310 310 309 309 309 309 308 308 306 303 302 302 303 305 307 307 307 307 306 307 304 302 301 302 303 304 305 305 305 305 305 305 305 304 304 304 304
311 310 310 309 308 308 308 308 308 309 309 309 307 306 305 302 301 299 301 304 305 305 306 306 306 303 300 300 301 302 303 304 304 304 304 304 304 304 305 305 303 303 303
309 308 307 307 307 307 307 309 309 308 307 306 305 304 303 302 300 298 299 302 302 302 304 304 302 301 301 301 301 302 303 302 302 303 303 304 304 304 304 304 304 303 304
307 306 306 306 306 308 308 307 306 306 305 305 304 304 303 302 300 298 297 298 298 300 302 302 302 301 301 301 302 302 301 301 302 304 304 304 304 304 304 303 303 303 304
306 306 306 306 307 307 306 305 305 305 305 304 304 304 304 302 299 298 298 297 297 298 300 300 300 301 301 301 302 301 300 300 301 302 303 303 303 303 303 302 301 302 301
306 306 306 306 305 304 304 304 304 303 304 304 304 304 303 301 299 297 297 297 298 299 299 300 300 300 301 301 302 302 301 300 301 302 302 301 301 302 302 301 299 299 299
306 306 305 304 303 302 301 301 300 300 302 302 302 302 301 300 295 293 293 295 296 298 300 300 300 300 301 300 300 298 297 298 297 297 297 297 297 298 298 299 297 297 298
305 305 304 303 301 299 297 297 295 292 294 298 298 297 296 295 292 293 293 293 294 297 299 300 299 298 297 297 296 295 295 295 294 294 294 294 294 295 295 296 295 296 297
304 303 303 302 300 298 296 293 293 292 292 292 293 294 293 292 293 293 294 294 296 297 297 296 296 295 295 295 294 293 293 293 293 292 292 292 292 293 293 293 294 295 296
301 301 301 301 301 300 299 297 293 291 292 292 292 292 292 292 293 294 295 295 294 295 295 295 295 294 294 293 292 291 292 292 292 292 291 290 290 291 291 292 292 294 295
299 300 301 301 301 301 301 298 298 296 296 294 293 293 292 292 292 293 294 294 293 292 293 293 293 292 292 292 292 291 292 292 292 291 289 288 288 289 290 291 292 293 294
299 300 300 301 300 300 300 299 298 298 297 297 295 295 294 294 293 293 293 293 292 292 292 293 293 293 293 293 293 293 293 293 292 290 288 288 288 289 290 291 292 293 296
298 299 300 299 299 300 299 298 297 297 297 296 296 296 297 296 295 294 294 294 293 293 293 294 294 294 294 294 293 292 292 291 290 289 288 288 289 290 291 292 294 296 298
298 298 299 300 300 300 300 299 298 298 297 293 293 293 294 294 295 295 295 295 294 294 294 294 294 293 292 292 291 291 290 289 288 288 288 289 290 291 292 295 297 297 298
298 299 299 300 300 300 300 300 299 299 297 296 294 294 294 295 295 294 294 294 294 294 293 293 293 291 291 290 289 288 288 288 287 287 288 290 291 293 294 296 297 297 299
298 299 300 300 300 298 299 298 297 296 296 295 295 295 294 294 294 294 294 294 293 293 292 292 292 289 288 288 287 286 286 285 287 287 288 290 291 295 297 296 296 297 298
297 298 298 297 298 297 296 296 295 295 295 295 294 294 294 293 293 293 292 292 292 292 291 290 290 288 286 285 284 284 285 287 289 289 292 293 294 296 299 298 296 297 297
297 298 297 297 297 296 296 295 295 294 294 294 294 293 292 292 292 291 291 291 291 291 290 289 289 287 284 283 282 282 284 287 288 290 292 293 294 295 296 298 298 296 296
296 296 297 296 296 296 295 295 294 293 293 293 292 291 291 291 291 291 290 290 290 290 289 289 288 287 285 282 281 281 283 285 286 288 289 291 291 293 294 296 297 297 296
Wind_Speed
28 31 31 29 29 27 26 22 21 19 18 16 13 11 10 9 9 9 9 10 12 11 12 13 15 17 14 15 15 12 11 10 5 9 17 20 19 22 26 18 17 16 19
31 31 30 30 29 29 27 24 22 21 17 14 11 10 8 8 8 9 12 13 15 15 16 16 13 15 16 15 16 17 17 18 16 11 16 21 20 18 19 17 21 24 25
32 32 31 30 29 28 25 22 20 18 15 13 11 10 10 11 12 8 9 13 15 15 18 17 16 16 16 11 13 17 20 19 21 20 19 20 22 22 24 21 22 23 23
32 31 30 28 27 26 24 22 19 16 14 12 10 10 10 9 7 11 12 14 14 15 17 17 16 14 10 15 13 14 15 20 19 19 20 20 22 23 22 22 22 19 20
31 30 29 29 27 25 23 20 17 14 12 11 9 9 10 8 12 15 15 15 18 18 16 16 10 11 11 10 10 10 13 16 16 17 17 19 18 23 20 22 22 23 23
29 28 29 27 25 22 21 18 15 13 12 10 9 10 12 10 12 15 19 22 16 14 16 8 10 12 12 13 13 13 16 18 16 15 16 16 21 22 22 22 23 22 9
27 27 26 24 22 19 17 16 13 13 11 10 10 10 10 11 14 17 18 13 10 11 12 10 12 12 14 15 16 17 16 15 15 17 17 18 19 20 22 20 19 20 22
25 24 23 22 20 17 16 13 11 10 10 9 9 11 11 12 15 18 12 12 11 12 10 9 9 6 9 15 19 16 16 16 15 14 16 19 20 22 24 25 25 25 26
24 22 20 18 17 15 14 11 9 8 9 14 14 11 12 12 17 16 13 11 11 12 13 9 5 8 15 17 16 14 16 16 17 18 18 17 18 20 20 22 20 20 19
20 19 18 16 15 15 11 10 9 13 12 11 12 12 10 9 12 18 16 16 15 14 11 7 8 15 16 16 15 12 14 17 22 22 19 19 19 20 18 16 20 18 18
16 16 16 12 14 13 13 13 11 11 10 11 9 6 7 5 10 20 20 14 12 13 11 12 9 16 15 13 12 13 15 19 19 17 19 20 23 23 21 22 22 23 23
14 14 12 12 15 15 11 12 10 8 10 9 6 6 6 7 11 18 17 16 14 11 11 12 14 14 14 13 11 15 20 22 16 17 18 19 20 22 22 24 29 30 30
10 12 11 17 15 13 11 11 12 11 9 6 9 10 8 8 10 13 13 13 13 15 9 10 10 12 14 18 17 17 22 25 21 19 20 21 25 26 28 25 34 29 31
8 12 15 14 12 13 14 14 14 11 7 9 8 8 8 10 12 13 12 13 12 11 11 10 11 13 14 17 17 21 22 21 21 21 22 23 24 25 26 24 29 30 28
9 10 13 11 12 14 15 15 12 11 8 7 7 8 9 9 11 11 12 15 15 11 11 11 15 16 17 18 18 19 20 21 22 24 24 25 25 26 26 27 27 27 22
12 9 7 12 14 13 14 15 15 17 18 15 12 10 9 12 10 11 10 16 14 14 13 14 13 15 16 18 19 21 21 22 24 24 25 26 26 27 29 30 24 23 23
11 10 8 9 10 13 12 12 11 11 13 14 15 16 16 14 13 11 10 13 18 15 15 14 15 17 19 19 19 22 22 21 25 23 25 25 25 26 27 27 26 24 25
9 12 8 7 9 8 12 14 10 9 7 5 12 10 12 13 14 13 13 13 15 18 17 15 15 16 16 17 17 19 20 22 24 24 25 25 25 24 26 26 26 25 26
10 8 8 6 11 11 11 11 10 9 9 6 6 5 4 8 12 17 15 15 14 14 13 12 13 14 14 16 17 20 21 23 23 25 24 25 26 26 27 26 28 28 27
6 10 10 11 9 10 12 11 11 9 8 9 6 3 2 5 10 11 12 12 13 13 13 13 15 18 21 22 24 25 24 25 25 24 26 27 27 27 27 29 28 28 28
11 10 11 11 10 10 11 11 11 9 10 13 10 6 5 8 11 11 12 13 14 13 14 17 19 21 22 23 25 25 25 24 23 26 28 29 29 29 30 28 28 27 26
11 11 8 11 11 11 11 12 11 9 10 13 10 9 10 12 12 13 12 14 14 15 16 17 19 22 23 24 25 26 26 26 26 27 30 30 31 27 27 30 30 27 26
10 9 9 10 11 12 10 12 11 10 10 10 11 12 12 12 13 12 12 13 14 15 16 18 18 21 23 23 24 25 27 29 31 27 31 32 30 28 20 27 30 28 28
9 8 11 13 11 12 11 13 14 13 10 11 12 13 13 13 13 13 13 13 14 15 16 17 18 20 22 24 27 28 31 29 32 36 34 32 28 31 21 25 26 31 28
8 5 11 12 12 15 13 14 13 11 10 10 13 14 14 13 13 14 14 14 14 15 15 17 19 18 22 24 28 31 32 29 29 31 31 30 30 30 29 26 24 25 29
11 13 13 13 12 14 14 15 13 11 12 11 12 14 14 14 14 14 14 14 15 14 15 16 18 17 24 29 30 31 33 31 30 31 32 30 31 32 32 30 31 21 25
Wind_Direction
121 116 115 112 111 110 104 102 102 102 99 94 97 94 83 68 46 28 7 26 7 357 351 350 349 350 356 350 343 333 332 327 293 298 305 308 302 301 291 272 254 256 258
118 117 115 113 110 104 102 102 98 93 92 87 84 77 63 45 38 24 20 11 3 358 351 347 344 338 342 343 350 353 348 343 325 296 307 310 306 296 288 282 275 262 256
121 115 112 108 107 106 105 103 99 92 85 79 67 54 38 22 12 45 21 3 355 346 339 339 330 332 330 352 354 348 341 341 337 331 320 312 308 316 311 294 282 281 279
117 113 111 111 107 102 99 94 89 85 78 70 58 49 35 27 47 35 13 355 344 335 330 324 319 320 1 343 352 353 346 345 337 330 322 321 321 323 335 344 340 327 306
115 114 112 108 102 99 95 91 86 79 68 58 47 37 31 52 32 7 358 348 334 322 320 316 334 0 24 25 4 349 349 341 328 328 325 329 333 342 344 348 341 333 328
117 113 109 106 105 102 97 89 78 68 55 45 35 29 29 52 17 360 350 335 330 323 314 354 28 32 25 19 4 346 331 319 313 317 315 319 317 323 325 331 329 329 319
113 110 108 106 99 93 87 75 62 54 45 36 28 28 54 39 12 360 348 360 1 18 18 17 352 347 345 349 339 333 325 320 316 313 295 294 299 306 311 311 311 304 295
98 95 91 87 80 77 72 63 54 51 44 41 44 57 57 32 14 4 18 14 8 359 350 344 350 339 353 348 341 335 331 330 331 338 331 319 312 309 306 300 296 294 292
84 82 82 82 79 72 66 62 57 64 66 72 64 62 59 31 17 11 14 14 2 354 352 341 38 24 1 349 347 341 337 336 325 322 315 318 320 309 302 310 296 287 282
83 82 75 74 76 76 72 80 76 70 71 69 68 62 47 37 17 14 22 16 8 355 0 25 48 13 359 351 355 350 342 332 329 331 334 323 332 333 332 313 303 285 282
72 76 72 69 96 90 86 78 76 79 79 71 76 80 76 61 29 18 22 24 11 351 349 360 357 358 353 0 10 358 349 335 331 323 318 323 331 329 325 325 314 302 285
71 76 81 83 77 84 85 86 75 72 80 83 72 80 115 83 48 22 17 18 10 354 344 343 340 342 358 2 359 355 353 355 343 333 335 328 327 325 319 318 321 307 305
83 85 88 80 79 83 82 75 74 59 67 75 70 67 79 73 33 14 9 11 1 352 344 337 354 347 358 8 3 352 357 356 347 337 342 335 327 322 322 315 323 317 314
73 73 80 81 85 77 72 68 64 44 48 57 45 42 48 35 18 9 6 5 2 -0 7 3 13 3 4 6 9 3 357 354 350 343 332 327 326 326 326 323 322 321 318
101 92 102 103 104 86 79 76 75 62 61 61 52 60 38 24 9 19 30 19 7 2 2 7 18 9 8 3 4 0 355 352 350 343 337 334 330 329 327 326 322 320 316
115 110 90 116 114 107 110 96 89 78 73 73 79 87 58 46 43 42 36 31 30 33 39 29 19 13 9 4 2 357 355 352 350 344 340 335 331 330 326 325 325 322 318
99 107 98 110 138 155 147 131 118 93 82 75 68 68 67 55 47 51 52 50 40 44 38 30 22 17 10 5 3 356 345 347 342 339 341 336 332 329 327 324 324 323 321
112 115 132 135 133 133 130 155 141 155 141 101 76 67 57 59 53 58 59 53 44 38 33 26 21 13 7 2 357 348 342 344 346 346 341 336 332 328 326 325 325 321 318
131 140 137 126 114 115 113 108 103 101 100 101 129 77 37 79 63 51 51 55 47 40 27 20 23 11 7 359 354 352 352 352 356 348 341 336 330 329 325 325 323 323 322
118 138 128 126 139 134 127 122 117 115 106 83 74 104 92 115 70 58 54 52 51 47 21 13 19 17 15 12 8 0 358 358 352 345 338 333 331 330 324 324 328 328 327
144 145 145 148 144 138 129 127 125 127 120 92 80 93 75 56 70 62 49 46 45 41 24 19 23 24 16 13 7 1 359 354 349 341 335 332 330 327 329 335 333 332 331
157 157 172 148 137 141 138 136 136 129 120 128 120 73 76 66 64 57 51 46 40 37 36 24 24 28 20 15 8 3 357 350 344 341 335 332 329 328 336 345 343 343 345
158 158 163 153 127 130 133 118 117 111 103 99 91 82 75 67 62 56 50 45 41 37 37 29 26 31 23 16 11 5 357 351 354 347 336 339 325 330 353 356 356 351 352
162 169 146 148 147 115 96 90 81 92 103 99 93 86 80 73 63 52 44 43 42 38 39 31 23 31 23 16 10 8 8 7 6 0 2 354 346 354 345 349 1 4 357
168 172 117 126 112 115 123 107 103 104 100 94 88 81 76 65 59 54 42 36 39 37 32 32 21 29 22 13 12 13 13 16 16 12 11 5 356 357 358 2 358 5 10
151 143 130 119 120 112 111 109 110 106 101 95 89 80 68 62 51 46 42 31 34 31 30 28 20 16 11 11 11 14 14 20 20 17 12 4 359 356 357 10 6 8 13